Location: Dackenheim
(49.5215°N, 8.1854°E)
Time: 06:44:24
(UTC+00:00)

AO-85 - Pass Details

Date: 15 March 2026
Orbit: 507 x 686 km, 64.8° (Epoch: 14 April)

Event Time Altitude Azimuth Distance (km) Brightness Sun altitude
Exits shadow 04:06:38 24° 214° (SW) 1,125 ? -16.0°
Maximum altitude 04:08:56 83° 130° (SE) 533 ? -15.7°
Drops below altitude 10° 04:12:49 10° 41° (NE) 1,744 ? -15.0°
Sets 04:14:58 0° 41° (NE) 2,625 ? -14.7°
